Notices

What's New in latest Release from April 7th, 2021:

- Updated Glossary, including Speed of Maximum Gust, and Total Hourly Precipitation

- Updated national and regional climate services offices contacts and prices information

- Addition of station inventory lists for 1981-2010, 1971-2000, and 1961-1990 Normals.

If you haven't already, please take our survey and provide feedback about our website: https://eccc.sondage-survey.ca/f/LanguageSelection.aspx?s=442ca660-fcf1-47c0-95a9-59707d6fd709

Hourly Data Report for November 10, 2019

QUALICUM BEACH AIRPORT
BRITISH COLUMBIA
Current Station Operator: ECCC - MSC

49°20'14.000" N
124°23'38.000" W
58.20 m
1026562
71766
VOQ

Download Data

Hourly Data (November 2019)
Hourly Data Report for November 10, 2019
TIME
LST
Temp Definition
°C
Dew Point Definition
°C
Rel Hum Definition
%
Precip. Amount Definition
mm

Wind Dir Definition
10's deg

Wind Spd Definition
km/h
Visibility Definition
km
Stn Press Definition
kPa
Hmdx Definition


Wind Chill Definition


Weather Definition


00:00 9.5 9.2 98 0.0 28 4   101.72     LegendNANA
01:00 9.5 9.2 98 0.0 31 5   101.74     LegendNANA
02:00 9.5 9.2 98 0.0 0 1   101.77     LegendNANA
03:00 9.5 9.2 98 0.0 27 3   101.79     LegendNANA
04:00 9.6 9.2 98 0.0 30 4   101.81     LegendNANA
05:00 9.5 9.1 98 0.0 24 3   101.81     LegendNANA
06:00 9.3 8.9 98 0.0 32 6   101.82     LegendNANA
07:00 9.3 9.0 98 0.0 30 4   101.84     LegendNANA
08:00 9.3 8.9 98 0.0 29 3   101.90     LegendNANA
09:00 9.2 8.8 97 0.0 27 2   101.99     LegendNANA
10:00 9.5 9.0 97 0.0 24 2   102.04     LegendNANA
11:00 10.1 9.0 93 0.0 29 5   102.08     LegendNANA
12:00 10.4 8.9 90 0.0 31 6   102.09     LegendNANA
13:00 10.7 8.6 87 0.0 32 8   102.08     LegendNANA
14:00 10.8 8.4 85 0.0 31 6   102.05     LegendNANA
15:00 10.9 8.3 84 0.0 33 4   102.03     LegendNANA
16:00 9.5 8.0 90 0.0 30 2   102.08     LegendNANA
17:00 8.1 7.3 95 0.0   0   102.10     LegendNANA
18:00 7.0 6.4 96 0.0 25 2   102.12     LegendNANA
19:00 6.2 5.7 97 0.0 0 1   102.08     LegendNANA
20:00 6.0 5.6 97 0.0   0   102.09     LegendNANA
21:00 6.0 5.6 98 0.0   0   102.10     LegendNANA
22:00 5.1 4.7 98 0.0 25 1   102.11     LegendNANA
23:00 5.1 4.8 98 0.0   0   102.12     LegendNANA

Notes on Data Quality.

Legend

  • E = Estimated
  • M = Missing
  • NA = Not Available*
  • [empty] = Indicates an unobserved value
Date modified: